Content
SEND FEEDBACK

Daily
Averages
Monthly
Summary
United States of America

ANN ARBOR, MICHIGAN


Home > North America > United States > Michigan
Elevation: 231 meters     Latitude: 42 17N     Longitude: 083 43W

WEATHER
 
SELECT A DAY
Number of Records: 203,193;   Date Range: 1/1/95 - 7/23/14
 
SHARE

PRINT THIS DATA

[ ← Previous Day ]
WEATHER ALMANAC - 23 JANUARY, 2013
[ Next Day → ]
[ °F ]   °C
Weather ElementAverageHighLow
Temperature-11.4 °C-8.3 °C (2:53 pm)-16.7 °C (5:53 am)
Dewpoint-14.7 °C-11.7 °C (9:53 pm)-18.3 °C (4:53 am)
Humidity78 %92 % (9:36 pm)62 % (2:53 pm)
Barometer1021.3 hPa1026.4 hPa (1:53 am)1017.6 hPa (9:07 pm)
Wind Speed9 km/h22.2 km/h (1:42 pm)
Weather ElementAverage
Visibility11.6 km
Wind DirectionSSW (196.6 °)

Weather ElementTotal
Precipitation---
Heating Degree Days30.8 (Base 18.3)
Averaged from 38 records on 23 January, 2013
WEATHER CONDITIONS BREAKOUT
WIND DIRECTION BREAKOUT
WEATHER BY HOUR - 23 JANUARY, 2013
[ °F ]   °C
Local TimeTemperatureDewpointHumidityBarometerVisibilityWind DirectionWind SpeedGust SpeedPrecipitationEventsConditions
1:53 AM-15 °C-17.8 °C80 %1026.4 hPa16.1 kmWest (270°)11.1 km/hOvercast
2:53 AM-15 °C-17.8 °C80 %1026.4 hPa16.1 kmWSW (250°)9.3 km/hOvercast
3:53 AM-15 °C-17.8 °C80 %1026.1 hPa16.1 kmWSW (240°)7.4 km/hOvercast
4:53 AM-15.6 °C-18.3 °C80 %1026.1 hPa16.1 kmWest (270°)7.4 km/hOvercast
5:53 AM-16.7 °C-18.3 °C88 %1026.1 hPa16.1 kmWSW (240°)5.6 km/hOvercast
6:53 AM-16.1 °C-18.3 °C84 %1025.7 hPa16.1 kmSSW (210°)5.6 km/hPartly Cloudy
7:53 AM-16.1 °C-18.3 °C84 %1026.1 hPa16.1 kmCalmOvercast
8:53 AM-15 °C-17.8 °C80 %1025.7 hPa16.1 kmSW (220°)9.3 km/hOvercast
9:53 AM-13.3 °C-17.2 °C73 %1025.4 hPa16.1 kmSW (220°)7.4 km/hOvercast
10:53 AM-11.7 °C-15.6 °C73 %1025.1 hPa16.1 kmSW (230°)13 km/hOvercast
11:11 AM-12 °C-16 °C73 %1023 hPa16.1 kmSW (230°)11.1 km/hOvercast
11:20 AM-12 °C-16 °C73 %1023 hPa14.5 kmSW (230°)11.1 km/hOvercast
11:53 AM-11.1 °C-15 °C73 %1024.4 hPa12.9 kmWSW (240°)14.8 km/hOvercast
12:27 PM-10 °C-14 °C73 %1021.7 hPa8 kmWSW (240°)16.7 km/h0 mmSnowLight Snow
12:53 PM-9.4 °C-13.9 °C70 %1023 hPa16.1 kmWest (270°)20.4 km/h0 mmOvercast
1:12 PM-9 °C-14 °C68 %1020.3 hPa14.5 kmSW (220°)18.5 km/hOvercast
1:42 PM-9 °C-14 °C68 %1020 hPa14.5 kmWSW (250°)22.2 km/hOvercast
1:53 PM-8.9 °C-14.4 °C65 %1021.7 hPa11.3 kmWest (260°)22.2 km/hOvercast
2:53 PM-8.3 °C-14.4 °C62 %1021 hPa16.1 kmWSW (250°)18.5 km/hOvercast
3:53 PM-8.9 °C-14.4 °C65 %1020.7 hPa16.1 kmSW (220°)16.7 km/hOvercast
4:45 PM-9 °C-14 °C68 %1018.3 hPa16.1 kmWSW (240°)14.8 km/hMostly Cloudy
4:53 PM-8.9 °C-15 °C62 %1020 hPa16.1 kmWSW (240°)18.5 km/hMostly Cloudy
5:53 PM-11.7 °C-16.1 °C70 %1020 hPa16.1 kmSW (230°)5.6 km/hMostly Cloudy
6:53 PM-10.6 °C-15 °C71 %1020 hPa16.1 kmSW (220°)7.4 km/hOvercast
7:53 PM-10.6 °C-15 °C71 %1020 hPa16.1 kmSW (230°)5.6 km/hOvercast
8:53 PM-10 °C-13.3 °C77 %1019.6 hPa9.7 kmSW (220°)5.6 km/h0 mmSnowLight Snow
9:07 PM-11 °C-13 °C85 %1017.6 hPa4 kmSW (230°)5.6 km/h0 mmSnowLight Snow
9:18 PM-11 °C-13 °C85 %1017.6 hPa2.4 kmCalm0 mmSnowLight Snow
9:36 PM-11 °C-12 °C92 %1017.9 hPa4 kmCalm0 mmSnowLight Snow
9:44 PM-11 °C-12 °C92 %1017.9 hPa4.8 kmCalm0 mmSnowLight Snow
9:53 PM-10.6 °C-11.7 °C92 %1019.6 hPa4.8 kmCalm0 mmSnowLight Snow
10:19 PM-10 °C-12 °C86 %1017.6 hPa3.2 kmCalm0 mmSnowLight Snow
10:31 PM-10 °C-12 °C86 %1017.6 hPa2.9 kmCalm0 mmSnowLight Snow
10:53 PM-10 °C-11.7 °C88 %1019.6 hPa2.4 kmCalm0 mmSnowLight Snow
11:22 PM-10 °C-12 °C86 %1018.3 hPa4.8 kmNW (320°)7.4 km/h0 mmSnowLight Snow
11:34 PM-10 °C-12 °C86 %1018.3 hPa3.2 kmNNW (330°)7.4 km/h0 mmSnowLight Snow
11:49 PM-10 °C-12 °C86 %1018.3 hPa4.8 kmNNW (330°)7.4 km/h0 mmSnowLight Snow
11:53 PM-10.6 °C-12.2 °C88 %1020.3 hPa4.8 kmNW (320°)7.4 km/h0 mmSnowLight Snow
Hourly data recorded from KARB, located 0 kilometers away from Ann Arbor, Michigan







STORIES FROM OUR PARTNERS